Accueil
METAR-TAF:

METAR-TAF

Aéroports :

Dobbiaco, Italie

latitude: 46-44N, longitude: 012-13E, altitude: 1222 m

Observation

Le bulletin a été fait il y a 1 heure et 7 minutes, à 21:55 UTC
Vent 10 kt de est
Température 8°C
Humidité 100%
Pression 1006 hPa

METAR: LIVD 262155Z AUTO 10010KT //// 08/08 Q1006

Heure: 01:02 (23:02 UTC)


TAF: absent

Observations et prévisions météorologiques de plus de 4000 aéroports (messages METAR et TAF).

Les stations disponibles sont représentées par des disques jaunes et rouges sur la carte.

Passer la souris dessus pour voir le nom de la station.

Cliquer dessus pour voir les observations et prévisions météorologiques.

Pour changer de carte: cliquez sur les boutons verts avec une croix noire pour zoomer, sur le bouton vert avec un tiret pour effectuer un zoom arrière, ou sur les flèches vertes pour les cartes adjacentes.


METAR-TAF: